FW1577 Weather Reports


Display with metric or nautical units.
time (UTC)temp
F
wind
direction
speed
MPH
gust
MPH
rain 1hr
in
rain 24hr
in
rain mn
in
humidity
%
barometer
mb
20260503213028 49 90 0.0 0.0 0.00 0.00 0.00 92 979.9
20260503211528 49 89 0.0 1.0 0.00 0.00 0.00 93 979.8
20260503210027 50 89 0.0 0.0 0.00 0.00 0.00 90 979.6
20260503204526 51 89 0.0 3.0 0.00 0.00 0.00 90 979.4
20260503203043 49 99 0.0 0.0 0.00 0.00 0.00 91 979.4
20260503201528 49 98 0.0 2.0 0.00 0.00 0.00 91 979.4
20260503200023 50 107 0.0 2.0 0.00 0.00 0.00 91 979.2
20260503194535 50 127 0.0 3.0 0.00 0.00 0.00 92 979.0
20260503193020 50 98 1.0 2.0 0.00 0.00 0.00 92 979.1
20260503191518 50 102 1.0 3.0 0.00 0.00 0.00 92 979.2
20260503190033 50 89 0.0 3.0 0.00 0.00 0.00 91 979.3
20260503184522 50 90 0.0 3.0 0.00 0.00 0.00 93 979.5
20260503183013 50 99 0.0 3.0 0.00 0.00 0.00 94 979.6
20260503181511 51 115 2.0 4.0 0.00 0.00 0.00 96 979.6
20260503180011 50 93 0.0 2.0 0.00 0.00 0.00 95 979.8
20260503174610 50 90 0.0 2.0 0.00 0.00 0.00 94 979.9
20260503173008 49 94 0.0 0.0 0.00 0.00 0.00 95 980.0
20260503171507 49 98 0.0 0.0 0.00 0.00 0.00 93 979.9
20260503081524 57 101 4.0 7.0 0.00 0.00 0.00 88 979.1
20260503071508 58 69 0.0 6.0 0.00 0.00 0.00 95 978.8
20260503060117 60 316 1.0 9.0 0.00 0.00 0.00 93 978.2
20260503054608 61 311 4.0 6.0 0.00 0.00 0.00 94 978.0
20260503053055 62 93 3.0 7.0 0.00 0.00 0.00 94 977.8
20260503051553 62 103 4.0 8.0 0.00 0.00 0.00 94 977.8
20260503050051 61 109 2.0 9.0 0.00 0.00 0.00 94 978.0
20260503044551 62 99 2.0 10.0 0.00 0.00 0.00 94 978.0
20260503043050 61 96 3.0 10.0 0.00 0.00 0.00 94 978.1
20260503041547 62 282 3.0 13.0 0.00 0.00 0.00 93 978.2
20260503040045 62 285 1.0 7.0 0.00 0.00 0.00 92 978.2
20260503034544 62 123 2.0 8.0 0.00 0.00 0.00 93 978.1
20260503033043 62 91 4.0 20.0 0.00 0.00 0.00 91 978.5
20260503031544 62 78 8.0 17.0 0.00 0.00 0.00 90 978.7
20260503030045 62 79 4.0 13.0 0.00 0.00 0.00 91 978.7
20260503024538 61 108 2.0 11.0 0.00 0.00 0.00 92 978.9
20260503023035 60 115 1.0 6.0 0.00 0.00 0.00 92 979.1
20260503021533 61 20 4.0 12.0 0.00 0.00 0.00 91 979.6
20260503020031 61 113 2.0 7.0 0.00 0.00 0.00 94 979.8
20260503014531 61 102 4.0 7.0 0.00 0.00 0.00 92 980.5
20260503013031 62 329 2.0 6.0 0.00 0.00 0.00 90 980.9
20260503011530 62 85 4.0 11.0 0.00 0.00 0.00 89 980.3
20260503010035 63 252 0.0 8.0 0.00 0.00 0.00 87 980.6
20260503004529 64 72 4.0 13.0 0.00 0.00 0.00 85 979.8
20260503003030 65 53 5.0 18.0 0.00 0.00 0.00 80 979.9
20260503001528 66 299 7.0 16.0 0.00 0.00 0.00 79 979.7
20260503000028 65 323 1.0 12.0 0.00 0.00 0.00 80 979.7
20260502234539 65 347 0.0 8.0 0.00 0.00 0.00 83 979.7
20260502233026 64 278 2.0 12.0 0.00 0.00 0.00 83 979.9
20260502231526 64 85 4.0 12.0 0.00 0.00 0.00 84 979.9
20260502230022 63 98 5.0 12.0 0.00 0.00 0.00 86 980.1
20260502224521 63 13 2.0 6.0 0.00 0.00 0.00 87 980.4
20260502223021 63 336 0.0 6.0 0.00 0.00 0.00 87 980.4
20260502221520 63 358 1.0 10.0 0.00 0.00 0.00 87 980.4
20260502220020 63 244 2.0 12.0 0.00 0.00 0.00 88 980.5
20260502214533 62 130 3.0 10.0 0.00 0.00 0.00 90 980.6